TIME,DELAY(SENSOR),PRES,OXYGEN,RAWTEMP,T(OPTODE),TCPHASE,FLUOR,BETA(BETA700),BETA(BETA412),BETA(BETA440),CDOM,C(CSC),ED(ED411.90),ED(ED443.80),ED(ED489.40),ED(ED554.70),LU(LU412.20),LU(LU443.80),LU(LU489.40),LU(LU555.00),COMP,TILTX,TILTY,CHECK
1355437810,5805,862.7500000000000000,159.9844970703125000,433.4097900390625000,9.5818309783935550,39.5197105407714840,52,100,53,55,63,12819,2146961042,2147519506,2147285970,2147504320,2147092662,2146928027,2147705728,2147122989,262,-1,8,35868
1355441406,5809,963.1699829101562000,199.7386932373047000,502.5374145507812500,7.4507517814636230,37.9597015380859400,51,98,53,56,63,12807,2146964251,2147518802,2147295753,2147517860,2147089819,2146928649,2147719981,2147118948,818,-1,8,17063
1355445006,5807,976.6599731445312000,209.8905029296875000,512.0759277343750000,7.1543560028076170,37.5146293640136700,52,100,52,56,63,12805,2146963300,2147519076,2147295067,2147519378,2147092032,2146924141,2147720978,2147120987,110,-1,8,4214
1355448606,5807,978.0700073242188000,209.8193969726562500,513.8391113281250000,7.0994992256164550,37.5505599975585940,52,100,52,56,64,12804,2146962212,2147520137,2147295926,2147521307,2147090669,2146926308,2147721572,2147122624,3287,-1,9,27107
1355452206,5806,985.3599853515625000,212.4440002441406200,514.8746948242188000,7.0672688484191895,37.4155807495117200,51,100,51,54,63,12801,2146961371,2147518838,2147297133,2147519296,2147095396,2146922368,2147719341,2147120548,3295,-1,8,15031
1355455806,5808,991.7500000000000000,211.9730987548828000,515.5062866210938000,7.0476088523864750,37.4538917541503900,51,98,53,56,64,12798,2146961700,2147514669,2147293878,2147523218,2147089929,2146920786,2147722066,2147121654,26,0,8,40471
1355459406,5810,994.4299926757812000,212.0352020263672000,515.1954956054688000,7.0572829246521000,37.4449996948242200,52,100,52,56,64,12800,2146962825,2147518546,2147296713,2147517211,2147092781,2146920448,2147723620,2147122742,3579,-1,8,36712
1355463006,5809,991.4799804687500000,214.4342041015625000,518.1414794921875000,6.9655499458312990,37.3578491210937500,52,98,52,56,64,12794,2146962578,2147518080,2147295881,2147520246,2147090953,2146919040,2147720000,2147122477,25,-1,8,30329
1355466606,5805,998.6099853515625000,213.6363983154297000,516.7545776367188000,7.0087428092956540,37.3790397644043000,53,99,51,55,64,12798,2146966939,2147519314,2147294409,2147522166,2147090422,2146922468,2147720960,2147122761,523,-1,8,45828
1355470206,5804,996.0000000000000000,211.3135986328125000,516.0833740234375000,7.0296421051025390,37.5019111633300800,51,98,52,56,64,12794,2146962505,2147519634,2147294939,2147519030,2147094134,2146924717,2147723227,2147121718,3489,-1,8,11218
1355473806,5806,994.0399780273438000,210.8365020751953000,516.8817138671875000,7.0047860145568850,37.5443191528320300,51,99,51,56,64,12797,2146962587,2147517494,2147296740,2147520768,2147092772,2146923821,2147722340,2147120649,2832,-1,8,57921
1355477406,5805,994.5599975585938000,214.3363952636718800,518.0939941406250000,6.9670290946960450,37.3629798889160160,52,100,52,55,63,12797,2146962267,2147518802,2147297243,2147521618,2147089673,2146921252,2147722660,2147122742,500,-1,8,49379
1355481006,5805,1000.0200195312500000,214.1605072021484400,517.1956176757812000,6.9950089454650880,37.3568305969238300,51,98,52,55,63,12795,2146962020,2147519524,2147297188,2147518820,2147090395,2146922898,2147722002,2147121024,433,-1,8,4793
1355484606,5806,1000.6500244140625000,211.5142974853515600,516.9672851562500000,7.0021171569824220,37.5058708190918000,52,99,53,55,63,12794,2146963620,2147519899,2147298459,2147519826,2147091757,2146924873,2147720731,2147118756,3307,-1,8,58323
1355488206,5808,999.7700195312500000,213.7882995605468800,518.2172241210938000,6.9631919860839840,37.3962097167968750,52,106,52,55,63,12792,2146966162,2147520804,2147298340,2147519734,2147091428,2146921609,2147718473,2147123401,450,-1,8,46641
1355491806,5807,1000.8300170898438000,213.0028991699218800,517.3809814453125000,6.9892368316650390,37.4270782470703100,53,108,51,55,64,12792,2146960886,2147515812,2147294811,2147519917,2147092745,2146921764,2147718628,2147120777,3324,-1,8,9475
1355495406,5808,998.9199829101562000,212.1999053955078000,517.5017700195312000,6.9854750633239750,37.4756507873535160,52,98,52,56,64,12793,2146963126,2147518838,2147292854,2147521462,2147090998,2146924745,2147717028,2147120219,274,0,8,24043
1355499006,5807,999.4299926757812000,212.9902954101562500,518.5029296875000000,6.9542899131774900,37.4477882385253900,51,100,53,55,63,12786,2146959350,2147519616,2147296201,2147522678,2147093010,2146921078,2147726262,2147118116,594,-1,8,12094
1355502606,5806,1000.5000000000000000,214.5317993164062500,518.5942993164062000,6.9514441490173340,37.3599700927734400,51,100,52,56,63,12788,2146962139,2147519378,2147294683,2147523840,2147094902,2146916781,2147720073,2147121929,2889,0,8,4319
1355506206,5805,998.0800170898438000,216.2752075195312500,520.2017822265625000,6.9013590812683105,37.2892112731933600,52,101,53,53,63,12785,2146964288,2147521289,2147296484,2147520210,2147093741,2146921270,2147725906,2147123145,430,-1,8,36123
1355509806,5807,996.0900268554688000,215.9391021728515600,520.2692260742188000,6.8992571830749510,37.3090896606445300,52,99,52,56,64,12786,2146961920,2147519241,2147296420,2147522697,2147091885,2146922322,2147727990,2147121773,3496,-1,8,44224
1355513406,5805,998.6900024414062000,216.1775970458984400,520.2733764648438000,6.8991270065307620,37.2953987121582000,52,99,51,55,63,12784,2146961106,2147520100,2147295332,2147521810,2147090907,2146926957,2147724836,2147121600,3284,-1,9,45465
1355517006,5806,999.8400268554688000,215.8538970947265600,519.8381958007812000,6.9126877784729000,37.3062210083007800,52,100,52,55,62,12786,2146963657,2147519670,2147292736,2147521078,2147091977,2146922752,2147724864,2147120493,601,0,8,51086
1355520606,5806,995.9000244140625000,215.7218933105468800,519.8997802734375000,6.9107689857482910,37.3153305053710940,51,100,51,56,63,12751,2146960731,2147520301,2147295433,2147521645,2147091574,2146920685,2147721700,2147121965,697,-1,8,33499
1355524206,5807,1000.2899780273438000,216.2095947265625000,520.3599853515625000,6.8964262008666990,37.2951316833496100,52,98,52,56,64,12754,2146960996,2147521883,2147298093,2147522011,2147092681,2146924653,2147720969,2147121728,3217,-1,9,7931
1355527806,5808,999.3200073242188000,215.5848999023437500,521.6453247070312000,6.8563671112060550,37.3541603088378900,51,98,52,56,64,12748,2146960411,2147520603,2147299081,2147519058,2147096576,2146914212,2147721307,2147118875,289,0,8,53269
1355531406,5809,999.8499755859375000,216.1880035400390600,521.7200927734375000,6.8540339469909670,37.3210105895996100,53,99,52,55,64,12748,2146963730,2147521718,2147297417,2147519881,2147091547,2146921051,2147724708,2147119003,412,-1,8,59077
1355535006,5804,1004.5000000000000000,216.4658050537109400,520.2443847656250000,6.9000301361083980,37.2788200378418000,50,100,52,55,63,12753,2146964160,2147519049,2147294994,2147520932,2147093266,2146924800,2147721545,2147118838,399,0,8,64892
1355538606,5808,1003.6699829101562000,214.1735992431640600,519.2750244140625000,6.9302377700805660,37.3924484252929700,52,101,52,55,63,12752,2146959597,2147521819,2147295442,2147518235,2147091035,2146921737,2147721243,2147120640,3362,-1,8,31009
1355542206,5804,1006.5900268554688000,214.3479003906250000,519.6231079101562000,6.9193902015686035,37.3890800476074200,52,102,52,55,63,12743,2146959771,2147524086,2147295990,2147520704,2147093888,2146924736,2147723684,2147121088,10,-1,8,49963
1355545806,5804,1004.1699829101562000,213.4689025878906200,519.2114257812500000,6.9322190284729000,37.4322013854980500,52,101,51,56,63,12746,2146961408,2147521316,2147294244,2147517440,2147092105,2146918354,2147721609,2147121152,3481,-1,8,55308
1355549406,5806,1002.7899780273438000,213.9691925048828000,519.3394165039062000,6.9282321929931640,37.4052314758300800,52,98,52,55,62,12743,2146958400,2147522002,2147295981,2147516982,2147094912,2146919634,2147721590,2147122093,346,-1,8,56424
1355553006,5808,1003.5100097656250000,212.7214965820312500,520.8062133789062000,6.8825230598449710,37.5037117004394500,52,99,52,55,63,12743,2146963145,2147520228,2147296804,2147520438,2147088950,2146925897,2147721042,2147123273,439,-1,8,48441
1355556606,5807,1003.7600097656250000,213.8123016357422000,520.8380126953125000,6.8815298080444340,37.4411811828613300,52,102,53,57,63,12742,2146959963,2147523465,2147296649,2147517805,2147093997,2146923611,2147724306,2147118948,68,-1,8,1579
1355560206,5805,1001.2299804687500000,215.5422058105468800,521.2390136718750000,6.8690328598022460,37.3489685058593750,51,100,53,55,64,12729,2146962477,2147518089,2147297920,2147521188,2147092809,2146925504,2147718784,2147123062,3375,-1,8,43785
1355563806,5807,1002.3200073242188000,215.9857025146484400,520.6895141601562000,6.8861579895019530,37.3140411376953100,51,98,52,56,63,12730,2146962020,2147519451,2147296146,2147517165,2147095195,2146920502,2147726080,2147117805,3323,-1,9,48898
1355567406,5809,1004.0900268554688000,216.2451934814453000,520.6436157226562000,6.8875899314880370,37.2980384826660160,52,99,51,53,64,12728,2146958198,2147521526,2147296539,2147516717,2147094125,2146924690,2147723968,2147120256,3567,-1,8,43018
1355571006,5808,1004.3099975585938000,216.7481994628906200,521.0869750976562000,6.8737678527832030,37.2771301269531250,52,100,51,55,62,12731,2146964077,2147517723,2147296905,2147516443,2147094016,2146920758,2147722998,2147120438,98,-1,8,27667
1355574606,5805,1004.7800292968750000,215.3184967041015600,520.6077270507812000,6.8887081146240230,37.3509902954101560,50,99,52,56,64,12729,2146963446,2147522112,2147295149,2147519122,2147095213,2146921828,2147723300,2147117440,3365,-1,9,11738
1355578206,5808,1000.4799804687500000,214.4568939208984400,520.9508056640625000,6.8780140876770020,37.4064292907714840,52,99,53,56,63,12728,2146959972,2147522258,2147294326,2147520228,2147092068,2146925458,2147724854,2147122486,187,-1,8,59325
1355581556,5804,1001.6699829101562000,214.3085937500000000,521.6453247070312000,6.8563652038574220,37.4267005920410160,52,101,51,54,64,12768,2146959990,2147521225,2147297344,2147521380,2147093028,2146923556,2147720960,2147119616,3473,-1,9,43095
